Location: Zerbst
(51.9650°N, 12.0766°E)
Time: 11:46:37
(UTC+02:00)

ISS - Pass Details

Date: 14 May 2017
Orbit: 401 x 407 km, 51.6° (Epoch: 25 September)

Event Time Altitude Azimuth Distance (km) Brightness Sun altitude
Exits shadow 04:10:39 12° 244° (WSW) 1,392 -1.7 -9.0°
Maximum altitude 04:13:43 62° 164° (SSE) 471 -3.7 -8.7°
Drops below altitude 10° 04:17:00 10° 83° (E) 1,481 -0.1 -8.3°
Sets 04:19:06 0° 80° (E) 2,340 1.1 -8.1°
